"datetime","temp","dp","rain_mm","uv","solar","mb","wind_mph","gust_mph","windchill","rh"
"2023-07-31 00:00:00",16.7,15.4,0.0,0.0,0,1008.7,2,3,"",92
"2023-07-31 00:01:00",16.7,15.4,0.0,0.0,0,1008.6,2,4,"",92
"2023-07-31 00:02:00",16.7,15.4,0.0,0.0,0,1008.5,2,3,"",92
"2023-07-31 00:03:00",16.7,15.4,0.0,0.0,0,1008.5,3,8,"",92
"2023-07-31 00:04:00",16.7,15.4,0.0,0.0,0,1008.4,4,8,"",92
"2023-07-31 00:05:00",16.7,15.4,0.2,0.0,0,1008.4,2,4,"",92
"2023-07-31 00:06:00",16.7,15.4,0.2,0.0,0,1008.5,2,4,"",92
"2023-07-31 00:07:00",16.7,15.4,0.2,0.0,0,1008.4,2,4,"",92
"2023-07-31 00:08:00",16.7,15.4,0.2,0.0,0,1008.5,4,5,"",92
"2023-07-31 00:09:00",16.7,15.4,0.2,0.0,0,1008.4,2,4,"",92
"2023-07-31 00:10:00",16.7,15.4,0.2,0.0,0,1008.4,3,6,"",92
"2023-07-31 00:11:00",16.7,15.4,0.2,0.0,0,1008.4,3,5,"",92
"2023-07-31 00:12:00",16.7,15.4,0.2,0.0,0,1008.4,2,3,"",92
"2023-07-31 00:13:00",16.7,15.4,0.4,0.0,0,1008.4,1,3,"",92
"2023-07-31 00:14:00",16.7,15.4,0.4,0.0,0,1008.3,2,3,"",92
"2023-07-31 00:15:00",16.7,15.4,0.4,0.0,0,1008.3,3,5,"",92
"2023-07-31 00:16:00",16.7,15.4,0.4,0.0,0,1008.3,3,6,"",92
"2023-07-31 00:17:00",16.7,15.4,0.4,0.0,0,1008.3,3,5,"",92
"2023-07-31 00:18:00",16.7,15.4,0.6,0.0,0,1008.3,2,5,"",92
"2023-07-31 00:19:00",16.7,15.4,0.6,0.0,0,1008.3,3,6,"",92
"2023-07-31 00:20:00",16.6,15.3,0.6,0.0,0,1008.2,2,5,"",92
"2023-07-31 00:21:00",16.7,15.4,0.6,0.0,0,1008.2,2,4,"",92
"2023-07-31 00:22:00",16.7,15.6,0.8,0.0,0,1008.3,2,4,"",93
"2023-07-31 00:23:00",16.7,15.6,0.8,0.0,0,1008.3,3,8,"",93
"2023-07-31 00:24:00",16.6,15.5,1.0,0.0,0,1008.3,2,5,"",93
"2023-07-31 00:25:00",16.7,15.6,1.0,0.0,0,1008.3,2,5,"",93
"2023-07-31 00:26:00",16.6,15.5,1.0,0.0,0,1008.3,1,2,"",93
"2023-07-31 00:27:00",16.7,15.6,1.0,0.0,0,1008.3,3,7,"",93
"2023-07-31 00:28:00",16.6,15.5,1.0,0.0,0,1008.3,2,3,"",93
"2023-07-31 00:29:00",16.7,15.6,1.0,0.0,0,1008.3,1,3,"",93
"2023-07-31 00:30:00",16.7,15.6,1.0,0.0,0,1008.3,2,5,"",93
"2023-07-31 00:31:00",16.6,15.5,1.0,0.0,0,1008.3,2,4,"",93
"2023-07-31 00:32:00",16.6,15.5,1.0,0.0,0,1008.3,2,3,"",93
"2023-07-31 00:33:00",16.6,15.5,1.0,0.0,0,1008.3,2,4,"",93
"2023-07-31 00:34:00",16.6,15.5,1.0,0.0,0,1008.3,2,3,"",93
"2023-07-31 00:35:00",16.6,15.5,1.0,0.0,0,1008.2,2,6,"",93
"2023-07-31 00:36:00",16.6,15.5,1.2,0.0,0,1008.2,2,3,"",93
"2023-07-31 00:37:00",16.6,15.5,1.2,0.0,0,1008.2,2,4,"",93
"2023-07-31 00:38:00",16.6,15.5,1.2,0.0,0,1008.2,2,4,"",93
"2023-07-31 00:39:00",16.6,15.5,1.2,0.0,0,1008.2,2,4,"",93
"2023-07-31 00:40:00",16.6,15.5,1.2,0.0,0,1008.1,2,3,"",93
"2023-07-31 00:41:00",16.6,15.5,1.2,0.0,0,1008.1,2,4,"",93
"2023-07-31 00:42:00",16.6,15.5,1.2,0.0,0,1008.1,3,6,"",93
"2023-07-31 00:43:00",16.6,15.5,1.2,0.0,0,1008.1,2,4,"",93
"2023-07-31 00:44:00",16.6,15.5,1.2,0.0,0,1008.1,2,4,"",93
"2023-07-31 00:45:00",16.6,15.5,1.2,0.0,0,1008.1,3,4,"",93
"2023-07-31 00:46:00",16.6,15.5,1.2,0.0,0,1008.1,2,3,"",93
"2023-07-31 00:47:00",16.6,15.5,1.2,0.0,0,1008.1,2,3,"",93
"2023-07-31 00:48:00",16.6,15.5,1.2,0.0,0,1008.1,2,3,"",93
"2023-07-31 00:49:00",16.6,15.5,1.2,0.0,0,1008.0,2,4,"",93
"2023-07-31 00:50:00",16.6,15.5,1.2,0.0,0,1008.1,2,7,"",93
"2023-07-31 00:51:00",16.6,15.5,1.2,0.0,0,1008.0,3,5,"",93
"2023-07-31 00:52:00",16.6,15.5,1.2,0.0,0,1008.0,1,3,"",93
"2023-07-31 00:53:00",16.6,15.5,1.4,0.0,0,1008.0,3,6,"",93
"2023-07-31 00:54:00",16.6,15.5,1.4,0.0,0,1008.0,2,4,"",93
"2023-07-31 00:55:00",16.6,15.5,1.4,0.0,0,1008.0,2,4,"",93
"2023-07-31 00:56:00",16.6,15.6,1.4,0.0,0,1008.0,2,7,"",94
"2023-07-31 00:57:00",16.6,15.5,1.4,0.0,0,1008.0,2,4,"",93
"2023-07-31 00:58:00",16.6,15.5,1.4,0.0,0,1008.0,2,3,"",93
"2023-07-31 00:59:00",16.6,15.6,1.4,0.0,0,1008.0,2,4,"",94
"2023-07-31 01:00:00",16.6,15.6,1.4,0.0,0,1007.9,2,4,"",94
"2023-07-31 01:01:00",16.6,15.6,1.4,0.0,0,1007.9,2,4,"",94
"2023-07-31 01:02:00",16.6,15.6,1.4,0.0,0,1007.9,2,3,"",94
"2023-07-31 01:03:00",16.6,15.6,1.4,0.0,0,1007.9,1,2,"",94
"2023-07-31 01:04:00",16.6,15.6,1.4,0.0,0,1007.9,1,2,"",94
"2023-07-31 01:05:00",16.6,15.6,1.4,0.0,0,1007.9,2,5,"",94
"2023-07-31 01:06:00",16.6,15.5,1.4,0.0,0,1007.9,2,3,"",93
"2023-07-31 01:07:00",16.6,15.6,1.4,0.0,0,1007.9,3,5,"",94
"2023-07-31 01:08:00",16.6,15.6,1.4,0.0,0,1007.8,2,3,"",94
"2023-07-31 01:09:00",16.6,15.6,1.4,0.0,0,1007.9,2,3,"",94
"2023-07-31 01:10:00",16.6,15.6,1.4,0.0,0,1007.9,2,3,"",94
"2023-07-31 01:11:00",16.6,15.6,1.4,0.0,0,1007.9,1,3,"",94
"2023-07-31 01:12:00",16.6,15.6,1.6,0.0,0,1007.8,2,4,"",94
"2023-07-31 01:13:00",16.6,15.6,1.6,0.0,0,1007.8,1,2,"",94
"2023-07-31 01:14:00",16.6,15.6,1.6,0.0,0,1007.8,1,3,"",94
"2023-07-31 01:15:00",16.6,15.6,1.6,0.0,0,1007.8,2,3,"",94
"2023-07-31 01:16:00",16.6,15.6,1.6,0.0,0,1007.9,1,3,"",94
"2023-07-31 01:17:00",16.6,15.6,1.6,0.0,0,1007.8,2,3,"",94
"2023-07-31 01:18:00",16.6,15.6,1.6,0.0,0,1007.8,1,3,"",94
"2023-07-31 01:19:00",16.6,15.6,1.6,0.0,0,1007.8,2,3,"",94
"2023-07-31 01:20:00",16.6,15.6,1.6,0.0,0,1007.8,2,3,"",94
"2023-07-31 01:21:00",16.6,15.6,1.8,0.0,0,1007.8,2,5,"",94
"2023-07-31 01:22:00",16.6,15.6,1.8,0.0,0,1007.8,3,5,"",94
"2023-07-31 01:23:00",16.6,15.6,1.8,0.0,0,1007.8,2,5,"",94
"2023-07-31 01:24:00",16.6,15.6,1.8,0.0,0,1007.8,1,3,"",94
"2023-07-31 01:25:00",16.6,15.6,1.8,0.0,0,1007.7,3,9,"",94
"2023-07-31 01:26:00",16.6,15.6,1.8,0.0,0,1007.7,2,3,"",94
"2023-07-31 01:27:00",16.6,15.6,1.8,0.0,0,1007.7,2,3,"",94
"2023-07-31 01:28:00",16.6,15.6,1.8,0.0,0,1007.7,2,3,"",94
"2023-07-31 01:29:00",16.7,15.7,1.8,0.0,0,1007.7,2,3,"",94
"2023-07-31 01:30:00",16.6,15.6,1.8,0.0,0,1007.7,2,5,"",94
"2023-07-31 01:31:00",16.6,15.6,1.8,0.0,0,1007.6,3,5,"",94
"2023-07-31 01:32:00",16.7,15.7,1.8,0.0,0,1007.6,1,2,"",94
"2023-07-31 01:33:00",16.7,15.7,1.8,0.0,0,1007.6,3,6,"",94
"2023-07-31 01:34:00",16.7,15.7,1.8,0.0,0,1007.6,2,4,"",94
"2023-07-31 01:35:00",16.7,15.7,1.8,0.0,0,1007.5,1,3,"",94
"2023-07-31 01:36:00",16.7,15.7,1.8,0.0,0,1007.4,1,3,"",94
"2023-07-31 01:37:00",16.7,15.7,1.8,0.0,0,1007.4,2,4,"",94
"2023-07-31 01:38:00",16.7,15.7,1.8,0.0,0,1007.5,2,4,"",94
"2023-07-31 01:39:00",16.7,15.7,1.8,0.0,0,1007.5,3,6,"",94
"2023-07-31 01:40:00",16.7,15.7,1.8,0.0,0,1007.4,1,3,"",94
"2023-07-31 01:41:00",16.7,15.7,1.8,0.0,0,1007.4,2,4,"",94
"2023-07-31 01:42:00",16.7,15.7,1.8,0.0,0,1007.4,2,3,"",94
"2023-07-31 01:43:00",16.7,15.7,1.8,0.0,0,1007.4,3,6,"",94
"2023-07-31 01:44:00",16.7,15.7,1.8,0.0,0,1007.3,2,4,"",94
"2023-07-31 01:45:00",16.7,15.7,1.8,0.0,0,1007.3,2,3,"",94
"2023-07-31 01:46:00",16.7,15.7,1.8,0.0,0,1007.2,3,4,"",94
"2023-07-31 01:47:00",16.7,15.7,1.8,0.0,0,1007.2,3,6,"",94
"2023-07-31 01:48:00",16.6,15.6,1.8,0.0,0,1007.2,2,6,"",94
"2023-07-31 01:49:00",16.7,15.7,1.8,0.0,0,1007.2,2,4,"",94
"2023-07-31 01:50:00",16.7,15.7,1.8,0.0,0,1007.2,3,5,"",94
"2023-07-31 01:51:00",16.7,15.7,1.8,0.0,0,1007.2,2,3,"",94
"2023-07-31 01:52:00",16.7,15.7,1.8,0.0,0,1007.2,2,3,"",94
"2023-07-31 01:53:00",16.7,15.7,1.8,0.0,0,1007.2,2,4,"",94
"2023-07-31 01:54:00",16.7,15.7,1.8,0.0,0,1007.2,3,5,"",94
"2023-07-31 01:55:00",16.7,15.7,1.8,0.0,0,1007.1,3,5,"",94
"2023-07-31 01:56:00",16.7,15.7,1.8,0.0,0,1007.1,2,4,"",94
"2023-07-31 01:57:00",16.7,15.7,1.8,0.0,0,1007.1,2,5,"",94
"2023-07-31 01:58:00",16.7,15.7,1.8,0.0,0,1007.0,3,5,"",94
"2023-07-31 01:59:00",16.7,15.7,1.8,0.0,0,1007.0,2,5,"",94
"2023-07-31 02:00:00",16.7,15.7,1.8,0.0,0,1006.9,2,4,"",94
"2023-07-31 02:01:00",16.7,15.7,1.8,0.0,0,1007.0,3,5,"",94
"2023-07-31 02:02:00",16.7,15.7,1.8,0.0,0,1006.9,1,3,"",94
"2023-07-31 02:03:00",16.7,15.7,1.8,0.0,0,1006.9,2,3,"",94
"2023-07-31 02:04:00",16.7,15.7,1.8,0.0,0,1006.9,3,5,"",94
"2023-07-31 02:05:00",16.7,15.7,1.8,0.0,0,1006.8,2,3,"",94
"2023-07-31 02:06:00",16.7,15.7,2.0,0.0,0,1006.8,2,4,"",94
"2023-07-31 02:07:00",16.7,15.7,2.0,0.0,0,1006.9,2,4,"",94
"2023-07-31 02:08:00",16.7,15.7,2.0,0.0,0,1006.8,2,4,"",94
"2023-07-31 02:09:00",16.7,15.7,2.0,0.0,0,1006.9,2,4,"",94
"2023-07-31 02:10:00",16.7,15.7,2.0,0.0,0,1006.9,3,6,"",94
"2023-07-31 02:11:00",16.7,15.7,2.0,0.0,0,1006.9,2,3,"",94
"2023-07-31 02:12:00",16.7,15.7,2.0,0.0,0,1006.9,1,4,"",94
"2023-07-31 02:13:00",16.7,15.7,2.0,0.0,0,1006.9,2,3,"",94
"2023-07-31 02:14:00",16.7,15.7,2.0,0.0,0,1006.8,2,4,"",94
"2023-07-31 02:15:00",16.7,15.7,2.0,0.0,0,1006.8,3,5,"",94
"2023-07-31 02:16:00",16.7,15.7,2.0,0.0,0,1006.8,2,4,"",94
"2023-07-31 02:17:00",16.7,15.7,2.0,0.0,0,1006.8,2,4,"",94
"2023-07-31 02:18:00",16.7,15.7,2.0,0.0,0,1006.8,2,3,"",94
"2023-07-31 02:19:00",16.7,15.7,2.0,0.0,0,1006.8,2,5,"",94
"2023-07-31 02:20:00",16.7,15.7,2.0,0.0,0,1006.8,2,4,"",94
"2023-07-31 02:21:00",16.7,15.7,2.0,0.0,0,1006.7,2,3,"",94
"2023-07-31 02:22:00",16.7,15.7,2.0,0.0,0,1006.6,2,4,"",94
"2023-07-31 02:23:00",16.7,15.7,2.0,0.0,0,1006.6,3,5,"",94
"2023-07-31 02:24:00",16.8,16.0,2.0,0.0,0,1006.7,2,4,"",95
"2023-07-31 02:25:00",16.7,15.9,2.0,0.0,0,1006.6,3,7,"",95
"2023-07-31 02:26:00",16.7,15.9,2.0,0.0,0,1006.6,2,4,"",95
"2023-07-31 02:27:00",16.8,15.8,2.0,0.0,0,1006.6,1,4,"",94
"2023-07-31 02:28:00",16.8,16.0,2.0,0.0,0,1006.6,2,4,"",95
"2023-07-31 02:29:00",16.8,16.0,2.0,0.0,0,1006.6,2,3,"",95
"2023-07-31 02:30:00",16.8,16.0,2.0,0.0,0,1006.5,2,3,"",95
"2023-07-31 02:31:00",16.8,16.0,2.0,0.0,0,1006.6,2,4,"",95
"2023-07-31 02:32:00",16.8,16.0,2.0,0.0,0,1006.6,2,4,"",95
"2023-07-31 02:33:00",16.8,16.0,2.0,0.0,0,1006.6,2,6,"",95
"2023-07-31 02:34:00",16.8,16.0,2.0,0.0,0,1006.5,2,4,"",95
"2023-07-31 02:35:00",16.8,16.0,2.0,0.0,0,1006.4,2,4,"",95
"2023-07-31 02:36:00",16.8,16.0,2.0,0.0,0,1006.4,2,4,"",95
"2023-07-31 02:37:00",16.8,16.0,2.0,0.0,0,1006.4,2,4,"",95
"2023-07-31 02:38:00",16.8,16.0,2.0,0.0,0,1006.4,2,4,"",95
"2023-07-31 02:39:00",16.8,16.0,2.0,0.0,0,1006.4,2,3,"",95
"2023-07-31 02:40:00",16.8,16.0,2.0,0.0,0,1006.3,2,4,"",95
"2023-07-31 02:41:00",16.8,16.0,2.0,0.0,0,1006.3,2,5,"",95
"2023-07-31 02:42:00",16.8,16.0,2.0,0.0,0,1006.3,2,2,"",95
"2023-07-31 02:43:00",16.8,16.0,2.0,0.0,0,1006.4,2,3,"",95
"2023-07-31 02:44:00",16.8,16.0,2.0,0.0,0,1006.4,2,3,"",95
"2023-07-31 02:45:00",16.8,16.0,2.0,0.0,0,1006.4,2,4,"",95
"2023-07-31 02:46:00",16.8,16.0,2.0,0.0,0,1006.4,1,4,"",95
"2023-07-31 02:47:00",16.8,16.0,2.0,0.0,0,1006.4,2,3,"",95
"2023-07-31 02:48:00",16.8,16.0,2.2,0.0,0,1006.3,2,3,"",95
"2023-07-31 02:49:00",16.8,16.0,2.2,0.0,0,1006.3,2,5,"",95
"2023-07-31 02:50:00",16.8,16.0,2.2,0.0,0,1006.3,2,3,"",95
"2023-07-31 02:51:00",16.8,16.0,2.2,0.0,0,1006.3,2,3,"",95
"2023-07-31 02:52:00",16.8,16.0,2.2,0.0,0,1006.2,2,3,"",95
"2023-07-31 02:53:00",16.8,16.0,2.2,0.0,0,1006.2,3,4,"",95
"2023-07-31 02:54:00",16.8,16.0,2.2,0.0,0,1006.2,2,4,"",95
"2023-07-31 02:55:00",16.8,16.0,2.2,0.0,0,1006.1,2,4,"",95
"2023-07-31 02:56:00",16.8,16.0,2.2,0.0,0,1006.2,2,3,"",95
"2023-07-31 02:57:00",16.8,16.0,2.2,0.0,0,1006.2,2,3,"",95
"2023-07-31 02:58:00",16.8,16.0,2.2,0.0,0,1006.2,3,4,"",95
"2023-07-31 02:59:00",16.8,16.0,2.2,0.0,0,1006.1,2,3,"",95
"2023-07-31 03:00:00",16.8,16.0,2.2,0.0,0,1006.1,1,3,"",95
"2023-07-31 03:01:00",16.8,16.0,2.2,0.0,0,1006.1,2,4,"",95
"2023-07-31 03:02:00",16.8,16.0,2.2,0.0,0,1006.1,2,3,"",95
"2023-07-31 03:03:00",16.9,16.1,2.2,0.0,0,1006.1,2,4,"",95
"2023-07-31 03:04:00",16.8,16.0,2.2,0.0,0,1006.1,2,3,"",95
"2023-07-31 03:05:00",16.9,16.1,2.2,0.0,0,1006.0,2,4,"",95
"2023-07-31 03:06:00",16.9,16.1,2.2,0.0,0,1006.1,2,4,"",95
"2023-07-31 03:07:00",16.9,16.1,2.2,0.0,0,1006.1,2,4,"",95
"2023-07-31 03:08:00",16.9,16.1,2.2,0.0,0,1006.0,1,3,"",95
"2023-07-31 03:09:00",16.9,16.1,2.2,0.0,0,1006.0,2,4,"",95
"2023-07-31 03:10:00",16.9,16.1,2.2,0.0,0,1006.1,2,4,"",95
"2023-07-31 03:11:00",16.9,16.1,2.2,0.0,0,1006.1,1,3,"",95
"2023-07-31 03:12:00",16.9,16.1,2.2,0.0,0,1006.0,1,3,"",95
"2023-07-31 03:13:00",16.9,16.1,2.2,0.0,0,1006.1,2,3,"",95
"2023-07-31 03:14:00",16.9,16.1,2.2,0.0,0,1006.0,2,3,"",95
"2023-07-31 03:15:00",16.9,16.1,2.2,0.0,0,1006.0,2,4,"",95
"2023-07-31 03:16:00",16.9,16.1,2.2,0.0,0,1005.9,2,3,"",95
"2023-07-31 03:17:00",16.9,16.1,2.2,0.0,0,1005.9,2,3,"",95
"2023-07-31 03:18:00",16.9,16.1,2.2,0.0,0,1005.9,2,4,"",95
"2023-07-31 03:19:00",16.9,16.1,2.2,0.0,0,1005.9,2,4,"",95
"2023-07-31 03:20:00",16.9,16.1,2.2,0.0,0,1005.8,3,4,"",95
"2023-07-31 03:21:00",16.9,16.1,2.2,0.0,0,1005.9,2,5,"",95
"2023-07-31 03:22:00",16.9,16.1,2.2,0.0,0,1005.9,2,5,"",95
"2023-07-31 03:23:00",16.9,16.1,2.2,0.0,0,1005.9,2,7,"",95
"2023-07-31 03:24:00",16.9,16.1,2.2,0.0,0,1005.9,2,3,"",95
"2023-07-31 03:25:00",16.9,16.1,2.2,0.0,0,1005.9,2,4,"",95
"2023-07-31 03:26:00",16.9,16.1,2.2,0.0,0,1005.9,3,5,"",95
"2023-07-31 03:27:00",16.9,16.1,2.2,0.0,0,1005.9,1,3,"",95
"2023-07-31 03:28:00",16.9,16.1,2.2,0.0,0,1005.9,1,2,"",95
"2023-07-31 03:29:00",16.9,16.1,2.2,0.0,0,1005.8,1,3,"",95
"2023-07-31 03:30:00",16.9,16.1,2.2,0.0,0,1005.8,1,1,"",95
"2023-07-31 03:31:00",16.9,16.1,2.2,0.0,0,1005.8,4,9,"",95
"2023-07-31 03:32:00",16.9,16.1,2.2,0.0,0,1005.8,2,5,"",95
"2023-07-31 03:33:00",16.9,16.1,2.2,0.0,0,1005.8,2,4,"",95
"2023-07-31 03:34:00",16.9,16.1,2.2,0.0,0,1005.8,1,3,"",95
"2023-07-31 03:35:00",16.9,16.1,2.2,0.0,0,1005.8,2,3,"",95
"2023-07-31 03:36:00",17.0,16.2,2.2,0.0,0,1005.7,2,4,"",95
"2023-07-31 03:37:00",16.9,16.1,2.2,0.0,0,1005.8,2,5,"",95
"2023-07-31 03:38:00",17.0,16.2,2.2,0.0,0,1005.7,3,6,"",95
"2023-07-31 03:39:00",17.0,16.2,2.2,0.0,0,1005.7,1,3,"",95
"2023-07-31 03:40:00",17.0,16.2,2.2,0.0,0,1005.7,2,3,"",95
"2023-07-31 03:41:00",17.0,16.2,2.2,0.0,0,1005.7,2,4,"",95
"2023-07-31 03:42:00",17.0,16.2,2.2,0.0,0,1005.6,3,5,"",95
"2023-07-31 03:43:00",17.0,16.2,2.2,0.0,0,1005.6,2,4,"",95
"2023-07-31 03:44:00",17.0,16.2,2.2,0.0,0,1005.7,3,5,"",95
"2023-07-31 03:45:00",17.0,16.2,2.2,0.0,0,1005.6,4,12,"",95
"2023-07-31 03:46:00",17.0,16.2,2.2,0.0,0,1005.6,3,5,"",95
"2023-07-31 03:47:00",17.0,16.2,2.2,0.0,0,1005.6,2,3,"",95
"2023-07-31 03:48:00",17.1,16.3,2.2,0.0,0,1005.5,3,3,"",95
"2023-07-31 03:49:00",17.1,16.3,2.2,0.0,0,1005.6,2,3,"",95
"2023-07-31 03:50:00",17.0,16.2,2.2,0.0,0,1005.6,2,3,"",95
"2023-07-31 03:51:00",17.0,16.2,2.2,0.0,0,1005.5,3,5,"",95
"2023-07-31 03:52:00",17.1,16.3,2.2,0.0,0,1005.5,2,3,"",95
"2023-07-31 03:53:00",17.0,16.2,2.2,0.0,0,1005.5,3,7,"",95
"2023-07-31 03:54:00",17.0,16.2,2.2,0.0,0,1005.5,2,4,"",95
"2023-07-31 03:55:00",17.1,16.3,2.2,0.0,0,1005.5,1,2,"",95
"2023-07-31 03:56:00",17.1,16.3,2.2,0.0,0,1005.5,1,3,"",95
"2023-07-31 03:57:00",17.1,16.3,2.2,0.0,0,1005.4,2,3,"",95
"2023-07-31 03:58:00",17.1,16.3,2.2,0.0,0,1005.4,2,4,"",95
"2023-07-31 03:59:00",17.1,16.3,2.2,0.0,0,1005.5,2,3,"",95
"2023-07-31 04:00:00",17.1,16.3,2.2,0.0,0,1005.4,2,3,"",95
"2023-07-31 04:01:00",17.0,16.2,2.2,0.0,0,1005.4,3,5,"",95
"2023-07-31 04:02:00",17.1,16.3,2.2,0.0,0,1005.4,2,3,"",95
"2023-07-31 04:03:00",17.1,16.3,2.2,0.0,0,1005.5,2,3,"",95
"2023-07-31 04:04:00",17.1,16.3,2.2,0.0,0,1005.5,2,4,"",95
"2023-07-31 04:05:00",17.1,16.3,2.2,0.0,0,1005.4,2,6,"",95
"2023-07-31 04:06:00",17.1,16.3,2.2,0.0,0,1005.4,1,3,"",95
"2023-07-31 04:07:00",17.1,16.3,2.2,0.0,0,1005.4,2,4,"",95
"2023-07-31 04:08:00",17.1,16.3,2.2,0.0,0,1005.4,2,3,"",95
"2023-07-31 04:09:00",17.1,16.3,2.2,0.0,0,1005.4,2,3,"",95
"2023-07-31 04:10:00",17.1,16.3,2.2,0.0,0,1005.4,2,3,"",95
"2023-07-31 04:11:00",17.1,16.3,2.2,0.0,0,1005.4,2,4,"",95
"2023-07-31 04:12:00",17.1,16.3,2.2,0.0,0,1005.4,2,4,"",95
"2023-07-31 04:13:00",17.1,16.3,2.2,0.0,0,1005.4,2,4,"",95
"2023-07-31 04:14:00",17.1,16.3,2.2,0.0,0,1005.4,2,4,"",95
"2023-07-31 04:15:00",17.1,16.3,2.2,0.0,0,1005.4,2,4,"",95
"2023-07-31 04:16:00",17.1,16.3,2.2,0.0,0,1005.4,2,3,"",95
"2023-07-31 04:17:00",17.1,16.3,2.2,0.0,0,1005.4,2,4,"",95
"2023-07-31 04:18:00",17.1,16.3,2.2,0.0,0,1005.4,2,4,"",95
"2023-07-31 04:19:00",17.1,16.3,2.2,0.0,0,1005.3,2,3,"",95
"2023-07-31 04:20:00",17.1,16.3,2.2,0.0,0,1005.3,2,3,"",95
"2023-07-31 04:21:00",17.1,16.3,2.2,0.0,0,1005.3,3,9,"",95
"2023-07-31 04:22:00",17.1,16.3,2.2,0.0,0,1005.3,3,4,"",95
"2023-07-31 04:23:00",17.1,16.3,2.2,0.0,0,1005.2,2,4,"",95
"2023-07-31 04:24:00",17.1,16.3,2.2,0.0,0,1005.2,1,2,"",95
"2023-07-31 04:25:00",17.1,16.3,2.2,0.0,0,1005.3,1,3,"",95
"2023-07-31 04:26:00",17.1,16.3,2.2,0.0,0,1005.2,2,4,"",95
"2023-07-31 04:27:00",17.1,16.3,2.2,0.0,0,1005.2,2,3,"",95
"2023-07-31 04:28:00",17.1,16.3,2.2,0.0,0,1005.2,2,5,"",95
"2023-07-31 04:29:00",17.1,16.3,2.2,0.0,0,1005.3,2,3,"",95
"2023-07-31 04:30:00",17.1,16.3,2.2,0.0,0,1005.2,3,8,"",95
"2023-07-31 04:31:00",17.1,16.3,2.2,0.0,0,1005.2,3,5,"",95
"2023-07-31 04:32:00",17.1,16.3,2.2,0.0,0,1005.1,2,4,"",95
"2023-07-31 04:33:00",17.1,16.3,2.2,0.0,0,1005.1,2,4,"",95
"2023-07-31 04:34:00",17.2,16.4,2.2,0.0,0,1005.1,2,3,"",95
"2023-07-31 04:35:00",17.1,16.3,2.2,0.0,0,1005.0,2,3,"",95
"2023-07-31 04:36:00",17.1,16.3,2.2,0.0,0,1005.1,2,4,"",95
"2023-07-31 04:37:00",17.1,16.3,2.2,0.0,0,1005.1,1,3,"",95
"2023-07-31 04:38:00",17.1,16.3,2.2,0.0,0,1005.1,3,4,"",95
"2023-07-31 04:39:00",17.1,16.3,2.2,0.0,0,1005.1,1,2,"",95
"2023-07-31 04:40:00",17.2,16.4,2.2,0.0,0,1005.1,3,4,"",95
"2023-07-31 04:41:00",17.1,16.3,2.2,0.0,0,1005.1,2,4,"",95
"2023-07-31 04:42:00",17.2,16.4,2.2,0.0,0,1005.1,2,4,"",95
"2023-07-31 04:43:00",17.2,16.4,2.2,0.0,0,1005.0,2,3,"",95
"2023-07-31 04:44:00",17.2,16.4,2.2,0.0,0,1005.0,2,3,"",95
"2023-07-31 04:45:00",17.2,16.4,2.2,0.0,0,1005.0,3,5,"",95
"2023-07-31 04:46:00",17.2,16.4,2.2,0.0,0,1005.0,3,7,"",95
"2023-07-31 04:47:00",17.2,16.4,2.2,0.0,0,1005.0,2,4,"",95
"2023-07-31 04:48:00",17.2,16.4,2.2,0.0,0,1005.0,2,3,"",95
"2023-07-31 04:49:00",17.2,16.4,2.2,0.0,0,1005.0,2,4,"",95
"2023-07-31 04:50:00",17.2,16.4,2.2,0.0,0,1005.0,2,3,"",95
"2023-07-31 04:51:00",17.2,16.4,2.2,0.0,0,1005.0,2,5,"",95
"2023-07-31 04:52:00",17.2,16.4,2.2,0.0,0,1005.0,2,3,"",95
"2023-07-31 04:53:00",17.2,16.4,2.2,0.0,0,1004.9,2,3,"",95
"2023-07-31 04:54:00",17.2,16.4,2.2,0.0,0,1004.9,2,4,"",95
"2023-07-31 04:55:00",17.2,16.4,2.2,0.0,0,1004.9,2,4,"",95
"2023-07-31 04:56:00",17.2,16.4,2.2,0.0,0,1004.9,1,2,"",95
"2023-07-31 04:57:00",17.2,16.4,2.2,0.0,0,1004.9,2,5,"",95
"2023-07-31 04:58:00",17.2,16.4,2.2,0.0,0,1004.8,3,6,"",95
"2023-07-31 04:59:00",17.2,16.4,2.2,0.0,0,1004.8,2,5,"",95
"2023-07-31 05:00:00",17.2,16.4,2.2,0.0,0,1004.8,3,5,"",95
"2023-07-31 05:01:00",17.2,16.4,2.2,0.0,0,1004.9,4,8,"",95
"2023-07-31 05:02:00",17.2,16.4,2.2,0.0,0,1004.8,3,8,"",95
"2023-07-31 05:03:00",17.2,16.4,2.2,0.0,0,1004.8,2,3,"",95
"2023-07-31 05:04:00",17.2,16.4,2.2,0.0,0,1004.9,2,6,"",95
"2023-07-31 05:05:00",17.2,16.4,2.2,0.0,0,1004.9,2,4,"",95
"2023-07-31 05:06:00",17.2,16.4,2.2,0.0,0,1004.8,3,5,"",95
"2023-07-31 05:07:00",17.2,16.4,2.2,0.0,0,1004.8,2,3,"",95
"2023-07-31 05:08:00",17.2,16.4,2.2,0.0,0,1004.9,2,4,"",95
"2023-07-31 05:09:00",17.2,16.4,2.2,0.0,0,1004.8,2,2,"",95
"2023-07-31 05:10:00",17.2,16.4,2.2,0.0,0,1004.9,2,4,"",95
"2023-07-31 05:11:00",17.2,16.4,2.2,0.0,0,1004.9,3,5,"",95
"2023-07-31 05:12:00",17.2,16.4,2.2,0.0,0,1004.8,3,6,"",95
"2023-07-31 05:13:00",17.2,16.4,2.2,0.0,0,1004.8,3,5,"",95
"2023-07-31 05:14:00",17.2,16.4,2.2,0.0,0,1004.8,1,4,"",95
"2023-07-31 05:15:00",17.3,16.5,2.2,0.0,0,1004.9,2,3,"",95
"2023-07-31 05:16:00",17.2,16.4,2.2,0.0,0,1004.7,3,6,"",95
"2023-07-31 05:17:00",17.3,16.5,2.2,0.0,0,1004.7,4,6,"",95
"2023-07-31 05:18:00",17.2,16.4,2.2,0.0,0,1004.8,2,5,"",95
"2023-07-31 05:19:00",17.2,16.4,2.2,0.0,0,1004.7,3,4,"",95
"2023-07-31 05:20:00",17.2,16.4,2.2,0.0,0,1004.7,2,6,"",95
"2023-07-31 05:21:00",17.2,16.4,2.2,0.0,0,1004.8,2,4,"",95
"2023-07-31 05:22:00",17.2,16.4,2.2,0.0,0,1004.7,2,3,"",95
"2023-07-31 05:23:00",17.2,16.4,2.2,0.0,0,1004.7,2,4,"",95
"2023-07-31 05:24:00",17.2,16.4,2.2,0.0,0,1004.7,2,4,"",95
"2023-07-31 05:25:00",17.2,16.4,2.2,0.0,0,1004.8,3,7,"",95
"2023-07-31 05:26:00",17.2,16.4,2.2,0.0,0,1004.8,2,5,"",95
"2023-07-31 05:27:00",17.2,16.4,2.2,0.0,0,1004.8,3,4,"",95
"2023-07-31 05:28:00",17.3,16.5,2.2,0.0,0,1004.8,2,6,"",95
"2023-07-31 05:29:00",17.3,16.5,2.2,0.0,0,1004.8,2,4,"",95
"2023-07-31 05:30:00",17.3,16.5,2.2,0.0,0,1004.7,2,3,"",95
"2023-07-31 05:31:00",17.3,16.5,2.2,0.0,0,1004.8,1,3,"",95
"2023-07-31 05:32:00",17.3,16.5,2.2,0.0,0,1004.8,1,3,"",95
"2023-07-31 05:33:00",17.3,16.5,2.2,0.0,0,1004.8,1,3,"",95
"2023-07-31 05:34:00",17.2,16.4,2.2,0.0,0,1004.8,2,4,"",95
"2023-07-31 05:35:00",17.2,16.4,2.2,0.0,0,1004.9,1,2,"",95
"2023-07-31 05:36:00",17.2,16.4,2.2,0.0,0,1004.8,1,2,"",95
"2023-07-31 05:37:00",17.3,16.5,2.2,0.0,0,1004.9,2,3,"",95
"2023-07-31 05:38:00",17.3,16.5,2.2,0.0,0,1004.9,1,3,"",95
"2023-07-31 05:39:00",17.3,16.5,2.2,0.0,0,1004.8,2,6,"",95
"2023-07-31 05:40:00",17.2,16.4,2.2,0.0,0,1004.8,2,3,"",95
"2023-07-31 05:41:00",17.2,16.4,2.2,0.0,0,1004.9,1,3,"",95
"2023-07-31 05:42:00",17.3,16.5,2.2,0.0,5,1004.8,1,3,"",95
"2023-07-31 05:43:00",17.3,16.5,2.2,0.0,5,1004.9,1,2,"",95
"2023-07-31 05:44:00",17.3,16.5,2.2,0.0,5,1004.8,2,4,"",95
"2023-07-31 05:45:00",17.3,16.5,2.2,0.0,5,1004.9,1,3,"",95
"2023-07-31 05:46:00",17.3,16.5,2.2,0.0,5,1004.9,1,2,"",95
"2023-07-31 05:47:00",17.3,16.5,2.2,0.0,5,1004.9,2,3,"",95
"2023-07-31 05:48:00",17.3,16.5,2.2,0.0,5,1004.9,2,3,"",95
"2023-07-31 05:49:00",17.3,16.5,2.2,0.0,5,1004.9,2,3,"",95
"2023-07-31 05:50:00",17.3,16.5,2.2,0.0,5,1004.9,2,3,"",95
"2023-07-31 05:51:00",17.3,16.5,2.2,0.0,5,1004.9,2,5,"",95
"2023-07-31 05:52:00",17.3,16.5,2.2,0.0,5,1004.9,3,4,"",95
"2023-07-31 05:53:00",17.3,16.5,2.2,0.0,7,1004.9,2,5,"",95
"2023-07-31 05:54:00",17.2,16.4,2.2,0.0,7,1004.8,2,4,"",95
"2023-07-31 05:55:00",17.2,16.4,2.2,0.0,7,1004.8,1,2,"",95
"2023-07-31 05:56:00",17.2,16.4,2.2,0.0,7,1004.9,1,3,"",95
"2023-07-31 05:57:00",17.2,16.4,2.2,0.0,7,1004.9,1,3,"",95
"2023-07-31 05:58:00",17.3,16.5,2.2,0.0,7,1004.9,3,5,"",95
"2023-07-31 05:59:00",17.2,16.4,2.2,0.0,7,1004.9,2,3,"",95
"2023-07-31 06:00:00",17.2,16.4,2.2,0.0,9,1004.9,1,2,"",95
"2023-07-31 06:01:00",17.2,16.4,2.2,0.0,7,1004.9,1,2,"",95
"2023-07-31 06:02:00",17.2,16.4,2.2,0.0,7,1004.9,2,5,"",95
"2023-07-31 06:03:00",17.2,16.4,2.2,0.0,7,1004.9,3,7,"",95
"2023-07-31 06:04:00",17.2,16.4,2.2,0.0,7,1004.9,1,3,"",95
"2023-07-31 06:05:00",17.2,16.4,2.2,0.0,7,1005.0,2,3,"",95
"2023-07-31 06:06:00",17.2,16.4,2.2,0.0,9,1004.9,2,3,"",95
"2023-07-31 06:07:00",17.2,16.4,2.2,0.0,11,1005.1,6,13,"",95
"2023-07-31 06:08:00",17.2,16.4,2.2,0.0,11,1005.0,3,5,"",95
"2023-07-31 06:09:00",17.3,16.5,2.2,0.0,11,1005.0,2,4,"",95
"2023-07-31 06:10:00",17.3,16.5,2.2,0.0,11,1004.9,2,3,"",95
"2023-07-31 06:11:00",17.2,16.4,2.2,0.0,12,1004.9,1,3,"",95
"2023-07-31 06:12:00",17.2,16.4,2.2,0.0,11,1004.9,1,3,"",95
"2023-07-31 06:13:00",17.2,16.4,2.2,0.0,26,1004.9,1,2,"",95
"2023-07-31 06:14:00",17.2,16.4,2.2,0.0,35,1004.9,2,4,"",95
"2023-07-31 06:15:00",17.3,16.5,2.2,0.0,39,1004.8,2,4,"",95
"2023-07-31 06:16:00",17.3,16.5,2.2,0.0,30,1004.8,2,4,"",95
"2023-07-31 06:17:00",17.3,16.5,2.2,0.0,26,1004.8,1,3,"",95
"2023-07-31 06:18:00",17.3,16.5,2.2,0.0,19,1004.8,3,5,"",95
"2023-07-31 06:19:00",17.3,16.5,2.2,0.0,12,1004.8,3,5,"",95
"2023-07-31 06:20:00",17.3,16.5,2.2,0.0,11,1004.9,1,2,"",95
"2023-07-31 06:21:00",17.3,16.5,2.2,0.0,12,1004.8,2,3,"",95
"2023-07-31 06:22:00",17.3,16.5,2.2,0.0,12,1004.9,2,4,"",95
"2023-07-31 06:23:00",17.3,16.5,2.2,0.0,12,1004.9,1,4,"",95
"2023-07-31 06:24:00",17.3,16.5,2.2,0.0,16,1004.9,1,2,"",95
"2023-07-31 06:25:00",17.3,16.5,2.2,0.0,16,1004.9,1,2,"",95
"2023-07-31 06:26:00",17.3,16.5,2.2,0.0,14,1004.8,2,3,"",95
"2023-07-31 06:27:00",17.3,16.5,2.2,0.0,12,1004.9,1,3,"",95
"2023-07-31 06:28:00",17.3,16.5,2.2,0.0,14,1004.9,2,2,"",95
"2023-07-31 06:29:00",17.3,16.5,2.2,0.0,16,1004.9,1,2,"",95
"2023-07-31 06:30:00",17.3,16.5,2.2,0.0,14,1004.9,1,3,"",95
"2023-07-31 06:31:00",17.3,16.5,2.2,0.0,14,1004.9,2,4,"",95
"2023-07-31 06:32:00",17.3,16.5,2.2,0.0,12,1004.9,2,3,"",95
"2023-07-31 06:33:00",17.3,16.5,2.2,0.0,16,1004.9,1,2,"",95
"2023-07-31 06:34:00",17.3,16.5,2.2,0.0,21,1004.8,3,4,"",95
"2023-07-31 06:35:00",17.3,16.5,2.2,0.0,21,1004.8,2,3,"",95
"2023-07-31 06:36:00",17.3,16.5,2.2,0.0,32,1004.8,2,3,"",95
"2023-07-31 06:37:00",17.3,16.5,2.2,0.0,39,1004.9,2,4,"",95
"2023-07-31 06:38:00",17.3,16.5,2.2,0.0,39,1004.8,2,3,"",95
"2023-07-31 06:39:00",17.3,16.5,2.2,0.0,33,1004.8,2,3,"",95
"2023-07-31 06:40:00",17.3,16.5,2.2,0.0,42,1004.8,1,2,"",95
"2023-07-31 06:41:00",17.4,16.6,2.2,0.0,42,1004.8,2,3,"",95
"2023-07-31 06:42:00",17.4,16.6,2.2,0.0,53,1004.7,1,2,"",95
"2023-07-31 06:43:00",17.3,16.5,2.4,0.0,53,1004.8,1,2,"",95